2017,07,04,00,00,00,345.3,,,,,,,,,,,,,,
2017,07,04,00,01,00,331.7,,,,,,,,,,,,,,
2017,07,04,00,02,00,314.3,,,,,,,,,,,,,,
2017,07,04,00,03,00,318.5,,,,,,,,,,,,,,
2017,07,04,00,04,00,291.8,,,,,,,,,,,,,,
2017,07,04,00,05,00,291.5,,,,,,,,,,,,,,
2017,07,04,00,06,00,325.0,,,,,,,,,,,,,,
2017,07,04,00,07,00,302.5,,,,,,,,,,,,,,
2017,07,04,00,08,00,292.4,,,,,,,,,,,,,,
2017,07,04,00,09,00,300.0,,,,,,,,,,,,,,
2017,07,04,00,10,00,326.6,,,,,,,,,,,,,,
2017,07,04,00,11,00,328.0,,,,,,,,,,,,,,
2017,07,04,00,12,00,307.8,,,,,,,,,,,,,,
2017,07,04,00,13,00,358.0,,,,,,,,,,,,,,
2017,07,04,00,14,00,339.5,,,,,,,,,,,,,,
2017,07,04,00,15,00,339.6,,,,,,,,,,,,,,
2017,07,04,00,16,00,337.8,,,,,,,,,,,,,,
2017,07,04,00,17,00,336.0,,,,,,,,,,,,,,
2017,07,04,00,18,00,327.9,,,,,,,,,,,,,,
2017,07,04,00,19,00,320.1,,,,,,,,,,,,,,
2017,07,04,00,20,00,332.1,,,,,,,,,,,,,,
2017,07,04,00,21,00,344.9,,,,,,,,,,,,,,
2017,07,04,00,22,00,334.4,,,,,,,,,,,,,,
2017,07,04,00,23,00,359.3,,,,,,,,,,,,,,
2017,07,04,00,24,00,368.6,,,,,,,,,,,,,,
2017,07,04,00,25,00,364.2,,,,,,,,,,,,,,
2017,07,04,00,26,00,361.0,,,,,,,,,,,,,,
2017,07,04,00,27,00,364.6,,,,,,,,,,,,,,
2017,07,04,00,28,00,360.1,,,,,,,,,,,,,,
2017,07,04,00,29,00,318.5,,,,,,,,,,,,,,
2017,07,04,00,30,00,321.8,,,,,,,,,,,,,,
2017,07,04,00,31,00,362.1,,,,,,,,,,,,,,
2017,07,04,00,32,00,382.7,,,,,,,,,,,,,,
2017,07,04,00,33,00,313.4,,,,,,,,,,,,,,
2017,07,04,00,34,00,292.3,,,,,,,,,,,,,,
2017,07,04,00,35,00,312.4,,,,,,,,,,,,,,
2017,07,04,00,36,00,313.2,,,,,,,,,,,,,,
2017,07,04,00,37,00,299.3,,,,,,,,,,,,,,
2017,07,04,00,38,00,296.8,,,,,,,,,,,,,,
2017,07,04,00,39,00,311.6,,,,,,,,,,,,,,
2017,07,04,00,40,00,301.8,,,,,,,,,,,,,,
2017,07,04,00,41,00,285.3,,,,,,,,,,,,,,
2017,07,04,00,42,00,277.6,,,,,,,,,,,,,,
2017,07,04,00,43,00,269.3,,,,,,,,,,,,,,
2017,07,04,00,44,00,281.6,,,,,,,,,,,,,,
2017,07,04,00,45,00,277.4,,,,,,,,,,,,,,
2017,07,04,00,46,00,291.5,,,,,,,,,,,,,,
2017,07,04,00,47,00,295.5,,,,,,,,,,,,,,
2017,07,04,00,48,00,310.2,,,,,,,,,,,,,,
2017,07,04,00,49,00,265.6,,,,,,,,,,,,,,
2017,07,04,00,50,00,290.1,,,,,,,,,,,,,,
2017,07,04,00,51,00,288.7,,,,,,,,,,,,,,
2017,07,04,00,52,00,307.1,,,,,,,,,,,,,,
2017,07,04,00,53,00,325.5,,,,,,,,,,,,,,
2017,07,04,00,54,00,298.4,,,,,,,,,,,,,,
2017,07,04,00,55,00,271.7,,,,,,,,,,,,,,
2017,07,04,00,56,00,252.3,,,,,,,,,,,,,,
2017,07,04,00,57,00,246.5,,,,,,,,,,,,,,
2017,07,04,00,58,00,258.9,,,,,,,,,,,,,,
2017,07,04,00,59,00,262.4,,,,,,,,,,,,,,
2017,07,04,01,00,00,306.4,,,,,,,,,,,,,,
2017,07,04,01,01,00,366.4,,,,,,,,,,,,,,
2017,07,04,01,02,00,370.4,,,,,,,,,,,,,,
2017,07,04,01,03,00,309.1,,,,,,,,,,,,,,
2017,07,04,01,04,00,276.4,,,,,,,,,,,,,,
2017,07,04,01,05,00,286.6,,,,,,,,,,,,,,
2017,07,04,01,06,00,290.7,,,,,,,,,,,,,,
2017,07,04,01,07,00,314.2,,,,,,,,,,,,,,
2017,07,04,01,08,00,320.3,,,,,,,,,,,,,,
2017,07,04,01,09,00,269.8,,,,,,,,,,,,,,
2017,07,04,01,10,00,253.9,,,,,,,,,,,,,,
2017,07,04,01,11,00,266.6,,,,,,,,,,,,,,
2017,07,04,01,12,00,291.2,,,,,,,,,,,,,,
2017,07,04,01,13,00,296.8,,,,,,,,,,,,,,
2017,07,04,01,14,00,298.1,,,,,,,,,,,,,,
2017,07,04,01,15,00,300.5,,,,,,,,,,,,,,
2017,07,04,01,16,00,291.5,,,,,,,,,,,,,,
2017,07,04,01,17,00,295.3,,,,,,,,,,,,,,
2017,07,04,01,18,00,283.8,,,,,,,,,,,,,,
2017,07,04,01,19,00,293.8,,,,,,,,,,,,,,
2017,07,04,01,20,00,297.1,,,,,,,,,,,,,,
2017,07,04,01,21,00,300.8,,,,,,,,,,,,,,
2017,07,04,01,22,00,278.4,,,,,,,,,,,,,,
2017,07,04,01,23,00,280.3,,,,,,,,,,,,,,
2017,07,04,01,24,00,285.2,,,,,,,,,,,,,,
2017,07,04,01,25,00,311.3,,,,,,,,,,,,,,
2017,07,04,01,26,00,294.3,,,,,,,,,,,,,,
2017,07,04,01,27,00,287.3,,,,,,,,,,,,,,
2017,07,04,01,28,00,290.3,,,,,,,,,,,,,,
2017,07,04,01,29,00,285.4,,,,,,,,,,,,,,
2017,07,04,01,30,00,282.5,,,,,,,,,,,,,,
2017,07,04,01,31,00,267.4,,,,,,,,,,,,,,
2017,07,04,01,32,00,256.3,,,,,,,,,,,,,,
2017,07,04,01,33,00,298.0,,,,,,,,,,,,,,
2017,07,04,01,34,00,303.3,,,,,,,,,,,,,,
2017,07,04,01,35,00,268.7,,,,,,,,,,,,,,
2017,07,04,01,36,00,241.8,,,,,,,,,,,,,,
2017,07,04,01,37,00,232.0,,,,,,,,,,,,,,
2017,07,04,01,38,00,246.8,,,,,,,,,,,,,,
2017,07,04,01,39,00,227.9,,,,,,,,,,,,,,
2017,07,04,01,40,00,223.2,,,,,,,,,,,,,,
2017,07,04,01,41,00,229.0,,,,,,,,,,,,,,
2017,07,04,01,42,00,235.3,,,,,,,,,,,,,,
2017,07,04,01,43,00,237.7,,,,,,,,,,,,,,
2017,07,04,01,44,00,326.6,,,,,,,,,,,,,,
2017,07,04,01,45,00,306.4,,,,,,,,,,,,,,
2017,07,04,01,46,00,272.1,,,,,,,,,,,,,,
2017,07,04,01,47,00,245.8,,,,,,,,,,,,,,
2017,07,04,01,48,00,236.8,,,,,,,,,,,,,,
2017,07,04,01,49,00,230.3,,,,,,,,,,,,,,
2017,07,04,01,50,00,230.8,,,,,,,,,,,,,,
2017,07,04,01,51,00,232.5,,,,,,,,,,,,,,
2017,07,04,01,52,00,220.6,,,,,,,,,,,,,,
2017,07,04,01,53,00,212.3,,,,,,,,,,,,,,
2017,07,04,01,54,00,234.4,,,,,,,,,,,,,,
2017,07,04,01,55,00,245.4,,,,,,,,,,,,,,
2017,07,04,01,56,00,252.7,,,,,,,,,,,,,,
2017,07,04,01,57,00,254.0,,,,,,,,,,,,,,
2017,07,04,01,58,00,262.6,,,,,,,,,,,,,,
2017,07,04,01,59,00,256.4,,,,,,,,,,,,,,
2017,07,04,02,00,00,247.6,,,,,,,,,,,,,,
2017,07,04,02,01,00,247.7,,,,,,,,,,,,,,
2017,07,04,02,02,00,263.1,,,,,,,,,,,,,,
2017,07,04,02,03,00,287.7,,,,,,,,,,,,,,
2017,07,04,02,04,00,264.6,,,,,,,,,,,,,,
2017,07,04,02,05,00,265.5,,,,,,,,,,,,,,
2017,07,04,02,06,00,288.8,,,,,,,,,,,,,,
2017,07,04,02,07,00,314.2,,,,,,,,,,,,,,
2017,07,04,02,08,00,297.1,,,,,,,,,,,,,,
2017,07,04,02,09,00,284.9,,,,,,,,,,,,,,
2017,07,04,02,10,00,293.3,,,,,,,,,,,,,,
2017,07,04,02,11,00,278.5,,,,,,,,,,,,,,
2017,07,04,02,12,00,247.5,,,,,,,,,,,,,,
2017,07,04,02,13,00,262.0,,,,,,,,,,,,,,
2017,07,04,02,14,00,268.8,,,,,,,,,,,,,,
2017,07,04,02,15,00,255.0,,,,,,,,,,,,,,
2017,07,04,02,16,00,258.9,,,,,,,,,,,,,,
2017,07,04,02,17,00,271.3,,,,,,,,,,,,,,
2017,07,04,02,18,00,253.9,,,,,,,,,,,,,,
2017,07,04,02,19,00,245.6,,,,,,,,,,,,,,
2017,07,04,02,20,00,244.4,,,,,,,,,,,,,,
2017,07,04,02,21,00,241.7,,,,,,,,,,,,,,
2017,07,04,02,22,00,252.5,,,,,,,,,,,,,,
2017,07,04,02,23,00,262.7,,,,,,,,,,,,,,
2017,07,04,02,24,00,251.3,,,,,,,,,,,,,,
2017,07,04,02,25,00,279.0,,,,,,,,,,,,,,
2017,07,04,02,26,00,254.5,,,,,,,,,,,,,,
2017,07,04,02,27,00,238.4,,,,,,,,,,,,,,
2017,07,04,02,28,00,234.2,,,,,,,,,,,,,,
2017,07,04,02,29,00,245.3,,,,,,,,,,,,,,
2017,07,04,02,30,00,246.6,,,,,,,,,,,,,,
2017,07,04,02,31,00,246.6,,,,,,,,,,,,,,
2017,07,04,02,32,00,280.5,,,,,,,,,,,,,,
2017,07,04,02,33,00,272.1,,,,,,,,,,,,,,
2017,07,04,02,34,00,253.0,,,,,,,,,,,,,,
2017,07,04,02,35,00,251.8,,,,,,,,,,,,,,
2017,07,04,02,36,00,250.9,,,,,,,,,,,,,,
2017,07,04,02,37,00,256.1,,,,,,,,,,,,,,
2017,07,04,02,38,00,318.0,,,,,,,,,,,,,,
2017,07,04,02,39,00,367.3,,,,,,,,,,,,,,
2017,07,04,02,40,00,378.0,,,,,,,,,,,,,,
2017,07,04,02,41,00,348.0,,,,,,,,,,,,,,
2017,07,04,02,42,00,334.8,,,,,,,,,,,,,,
2017,07,04,02,43,00,328.8,,,,,,,,,,,,,,
2017,07,04,02,44,00,310.6,,,,,,,,,,,,,,
2017,07,04,02,45,00,297.9,,,,,,,,,,,,,,
2017,07,04,02,46,00,298.2,,,,,,,,,,,,,,
2017,07,04,02,47,00,306.7,,,,,,,,,,,,,,
2017,07,04,02,48,00,303.6,,,,,,,,,,,,,,
2017,07,04,02,49,00,310.4,,,,,,,,,,,,,,
2017,07,04,02,50,00,280.2,,,,,,,,,,,,,,
2017,07,04,02,51,00,253.1,,,,,,,,,,,,,,
2017,07,04,02,52,00,251.5,,,,,,,,,,,,,,
2017,07,04,02,53,00,245.2,,,,,,,,,,,,,,
2017,07,04,02,54,00,247.9,,,,,,,,,,,,,,
2017,07,04,02,55,00,239.7,,,,,,,,,,,,,,
2017,07,04,02,56,00,284.3,,,,,,,,,,,,,,
2017,07,04,02,57,00,291.7,,,,,,,,,,,,,,
2017,07,04,02,58,00,313.8,,,,,,,,,,,,,,
2017,07,04,02,59,00,261.7,,,,,,,,,,,,,,
2017,07,04,03,00,00,246.3,,,,,,,,,,,,,,
2017,07,04,03,01,00,230.8,,,,,,,,,,,,,,
2017,07,04,03,02,00,247.9,,,,,,,,,,,,,,
2017,07,04,03,03,00,246.0,,,,,,,,,,,,,,
2017,07,04,03,04,00,222.6,,,,,,,,,,,,,,
2017,07,04,03,05,00,206.9,,,,,,,,,,,,,,
2017,07,04,03,06,00,209.7,,,,,,,,,,,,,,
2017,07,04,03,07,00,233.5,,,,,,,,,,,,,,
2017,07,04,03,08,00,231.9,,,,,,,,,,,,,,
2017,07,04,03,09,00,217.1,,,,,,,,,,,,,,
2017,07,04,03,10,00,225.7,,,,,,,,,,,,,,
2017,07,04,03,11,00,253.4,,,,,,,,,,,,,,
2017,07,04,03,12,00,270.8,,,,,,,,,,,,,,
2017,07,04,03,13,00,263.4,,,,,,,,,,,,,,
2017,07,04,03,14,00,248.6,,,,,,,,,,,,,,
2017,07,04,03,15,00,240.7,,,,,,,,,,,,,,
2017,07,04,03,16,00,224.3,,,,,,,,,,,,,,
2017,07,04,03,17,00,228.0,,,,,,,,,,,,,,
2017,07,04,03,18,00,222.3,,,,,,,,,,,,,,
2017,07,04,03,19,00,249.4,,,,,,,,,,,,,,
2017,07,04,03,20,00,253.6,,,,,,,,,,,,,,
2017,07,04,03,21,00,253.5,,,,,,,,,,,,,,
2017,07,04,03,22,00,231.6,,,,,,,,,,,,,,
2017,07,04,03,23,00,206.7,,,,,,,,,,,,,,
2017,07,04,03,24,00,206.2,,,,,,,,,,,,,,
2017,07,04,03,25,00,193.2,,,,,,,,,,,,,,
2017,07,04,03,26,00,196.2,,,,,,,,,,,,,,
2017,07,04,03,27,00,214.0,,,,,,,,,,,,,,
2017,07,04,03,28,00,244.5,,,,,,,,,,,,,,
2017,07,04,03,29,00,220.0,,,,,,,,,,,,,,
2017,07,04,03,30,00,238.7,,,,,,,,,,,,,,
2017,07,04,03,31,00,234.1,,,,,,,,,,,,,,
2017,07,04,03,32,00,216.7,,,,,,,,,,,,,,
2017,07,04,03,33,00,219.8,,,,,,,,,,,,,,
2017,07,04,03,34,00,224.4,,,,,,,,,,,,,,
2017,07,04,03,35,00,212.1,,,,,,,,,,,,,,
2017,07,04,03,36,00,210.7,,,,,,,,,,,,,,
2017,07,04,03,37,00,205.0,,,,,,,,,,,,,,
2017,07,04,03,38,00,210.6,,,,,,,,,,,,,,
2017,07,04,03,39,00,212.7,,,,,,,,,,,,,,
2017,07,04,03,40,00,212.2,,,,,,,,,,,,,,
2017,07,04,03,41,00,219.1,,,,,,,,,,,,,,
2017,07,04,03,42,00,228.8,,,,,,,,,,,,,,
2017,07,04,03,43,00,230.1,,,,,,,,,,,,,,
2017,07,04,03,44,00,235.0,,,,,,,,,,,,,,
2017,07,04,03,45,00,226.3,,,,,,,,,,,,,,
2017,07,04,03,46,00,205.3,,,,,,,,,,,,,,
2017,07,04,03,47,00,218.6,,,,,,,,,,,,,,
2017,07,04,03,48,00,239.4,,,,,,,,,,,,,,
2017,07,04,03,49,00,229.7,,,,,,,,,,,,,,
2017,07,04,03,50,00,228.7,,,,,,,,,,,,,,
2017,07,04,03,51,00,233.3,,,,,,,,,,,,,,
2017,07,04,03,52,00,228.7,,,,,,,,,,,,,,
2017,07,04,03,53,00,224.3,,,,,,,,,,,,,,
2017,07,04,03,54,00,215.4,,,,,,,,,,,,,,
2017,07,04,03,55,00,230.0,,,,,,,,,,,,,,
2017,07,04,03,56,00,228.3,,,,,,,,,,,,,,
2017,07,04,03,57,00,234.2,,,,,,,,,,,,,,
2017,07,04,03,58,00,243.9,,,,,,,,,,,,,,
2017,07,04,03,59,00,243.5,,,,,,,,,,,,,,
2017,07,04,04,00,00,218.0,,,,,,,,,,,,,,
2017,07,04,04,01,00,221.5,,,,,,,,,,,,,,
2017,07,04,04,02,00,252.3,,,,,,,,,,,,,,
2017,07,04,04,03,00,262.5,,,,,,,,,,,,,,
2017,07,04,04,04,00,248.5,,,,,,,,,,,,,,
2017,07,04,04,05,00,224.8,,,,,,,,,,,,,,
2017,07,04,04,06,00,218.1,,,,,,,,,,,,,,
2017,07,04,04,07,00,230.3,,,,,,,,,,,,,,
2017,07,04,04,08,00,249.7,,,,,,,,,,,,,,
2017,07,04,04,09,00,308.9,,,,,,,,,,,,,,
2017,07,04,04,10,00,326.9,,,,,,,,,,,,,,
2017,07,04,04,11,00,313.5,,,,,,,,,,,,,,
2017,07,04,04,12,00,335.9,,,,,,,,,,,,,,
2017,07,04,04,13,00,341.7,,,,,,,,,,,,,,
2017,07,04,04,14,00,282.5,,,,,,,,,,,,,,
2017,07,04,04,15,00,242.0,,,,,,,,,,,,,,
2017,07,04,04,16,00,253.8,,,,,,,,,,,,,,
2017,07,04,04,17,00,271.9,,,,,,,,,,,,,,
2017,07,04,04,18,00,320.2,,,,,,,,,,,,,,
2017,07,04,04,19,00,321.9,,,,,,,,,,,,,,
2017,07,04,04,20,00,280.0,,,,,,,,,,,,,,
2017,07,04,04,21,00,257.9,,,,,,,,,,,,,,
2017,07,04,04,22,00,255.2,,,,,,,,,,,,,,
2017,07,04,04,23,00,232.7,,,,,,,,,,,,,,
2017,07,04,04,24,00,208.8,,,,,,,,,,,,,,
2017,07,04,04,25,00,200.8,,,,,,,,,,,,,,
2017,07,04,04,26,00,208.8,,,,,,,,,,,,,,
2017,07,04,04,27,00,241.2,,,,,,,,,,,,,,
2017,07,04,04,28,00,287.2,,,,,,,,,,,,,,
2017,07,04,04,29,00,340.1,,,,,,,,,,,,,,
2017,07,04,04,30,00,264.3,,,,,,,,,,,,,,
2017,07,04,04,31,00,207.5,,,,,,,,,,,,,,
2017,07,04,04,32,00,181.4,,,,,,,,,,,,,,
2017,07,04,04,33,00,195.5,,,,,,,,,,,,,,
2017,07,04,04,34,00,214.8,,,,,,,,,,,,,,
2017,07,04,04,35,00,219.9,,,,,,,,,,,,,,
2017,07,04,04,36,00,213.1,,,,,,,,,,,,,,
2017,07,04,04,37,00,208.7,,,,,,,,,,,,,,
2017,07,04,04,38,00,191.9,,,,,,,,,,,,,,
2017,07,04,04,39,00,200.1,,,,,,,,,,,,,,
2017,07,04,04,40,00,255.3,,,,,,,,,,,,,,
2017,07,04,04,41,00,276.1,,,,,,,,,,,,,,
2017,07,04,04,42,00,217.8,,,,,,,,,,,,,,
2017,07,04,04,43,00,186.2,,,,,,,,,,,,,,
2017,07,04,04,44,00,170.4,,,,,,,,,,,,,,
2017,07,04,04,45,00,170.5,,,,,,,,,,,,,,
2017,07,04,04,46,00,192.4,,,,,,,,,,,,,,
2017,07,04,04,47,00,188.2,,,,,,,,,,,,,,
2017,07,04,04,48,00,203.4,,,,,,,,,,,,,,
2017,07,04,04,49,00,215.7,,,,,,,,,,,,,,
2017,07,04,04,50,00,276.6,,,,,,,,,,,,,,
2017,07,04,04,51,00,312.5,,,,,,,,,,,,,,
2017,07,04,04,52,00,280.6,,,,,,,,,,,,,,
2017,07,04,04,53,00,233.4,,,,,,,,,,,,,,
2017,07,04,04,54,00,210.0,,,,,,,,,,,,,,
2017,07,04,04,55,00,211.9,,,,,,,,,,,,,,
2017,07,04,04,56,00,221.0,,,,,,,,,,,,,,
2017,07,04,04,57,00,205.4,,,,,,,,,,,,,,
2017,07,04,04,58,00,221.1,,,,,,,,,,,,,,
2017,07,04,04,59,00,244.0,,,,,,,,,,,,,,
2017,07,04,05,00,00,249.2,,,,,,,,,,,,,,
2017,07,04,05,01,00,215.1,,,,,,,,,,,,,,
2017,07,04,05,02,00,201.6,,,,,,,,,,,,,,
2017,07,04,05,03,00,198.3,,,,,,,,,,,,,,
2017,07,04,05,04,00,218.7,,,,,,,,,,,,,,
2017,07,04,05,05,00,194.4,,,,,,,,,,,,,,
2017,07,04,05,06,00,242.9,,,,,,,,,,,,,,
2017,07,04,05,07,00,250.6,,,,,,,,,,,,,,
2017,07,04,05,08,00,272.6,,,,,,,,,,,,,,
2017,07,04,05,09,00,242.6,,,,,,,,,,,,,,
2017,07,04,05,10,00,230.6,,,,,,,,,,,,,,
2017,07,04,05,11,00,210.9,,,,,,,,,,,,,,
2017,07,04,05,12,00,206.6,,,,,,,,,,,,,,
2017,07,04,05,13,00,219.1,,,,,,,,,,,,,,
2017,07,04,05,14,00,205.4,,,,,,,,,,,,,,
2017,07,04,05,15,00,225.6,,,,,,,,,,,,,,
2017,07,04,05,16,00,250.1,,,,,,,,,,,,,,
2017,07,04,05,17,00,235.3,,,,,,,,,,,,,,
2017,07,04,05,18,00,234.5,,,,,,,,,,,,,,
2017,07,04,05,19,00,231.1,,,,,,,,,,,,,,
2017,07,04,05,20,00,200.7,,,,,,,,,,,,,,
2017,07,04,05,21,00,203.1,,,,,,,,,,,,,,
2017,07,04,05,22,00,204.8,,,,,,,,,,,,,,
2017,07,04,05,23,00,204.2,,,,,,,,,,,,,,
2017,07,04,05,24,00,213.2,,,,,,,,,,,,,,
2017,07,04,05,25,00,284.7,,,,,,,,,,,,,,
2017,07,04,05,26,00,263.9,,,,,,,,,,,,,,
2017,07,04,05,27,00,209.0,,,,,,,,,,,,,,
2017,07,04,05,28,00,211.7,,,,,,,,,,,,,,
2017,07,04,05,29,00,202.4,,,,,,,,,,,,,,
2017,07,04,05,30,00,221.1,,,,,,,,,,,,,,
2017,07,04,05,31,00,200.9,,,,,,,,,,,,,,
2017,07,04,05,32,00,216.8,,,,,,,,,,,,,,
2017,07,04,05,33,00,226.0,,,,,,,,,,,,,,
2017,07,04,05,34,00,218.6,,,,,,,,,,,,,,
2017,07,04,05,35,00,197.8,,,,,,,,,,,,,,
2017,07,04,05,36,00,227.5,,,,,,,,,,,,,,
2017,07,04,05,37,00,208.4,,,,,,,,,,,,,,
2017,07,04,05,38,00,181.5,,,,,,,,,,,,,,
2017,07,04,05,39,00,214.5,,,,,,,,,,,,,,
2017,07,04,05,40,00,239.0,,,,,,,,,,,,,,
2017,07,04,05,41,00,233.2,,,,,,,,,,,,,,
2017,07,04,05,42,00,224.0,,,,,,,,,,,,,,
2017,07,04,05,43,00,204.2,,,,,,,,,,,,,,
2017,07,04,05,44,00,192.2,,,,,,,,,,,,,,
2017,07,04,05,45,00,181.3,,,,,,,,,,,,,,
2017,07,04,05,46,00,184.5,,,,,,,,,,,,,,
2017,07,04,05,47,00,172.3,,,,,,,,,,,,,,
2017,07,04,05,48,00,176.7,,,,,,,,,,,,,,
2017,07,04,05,49,00,202.8,,,,,,,,,,,,,,
2017,07,04,05,50,00,210.5,,,,,,,,,,,,,,
2017,07,04,05,51,00,209.7,,,,,,,,,,,,,,
2017,07,04,05,52,00,219.4,,,,,,,,,,,,,,
2017,07,04,05,53,00,215.9,,,,,,,,,,,,,,
2017,07,04,05,54,00,248.6,,,,,,,,,,,,,,
2017,07,04,05,55,00,255.9,,,,,,,,,,,,,,
2017,07,04,05,56,00,220.9,,,,,,,,,,,,,,
2017,07,04,05,57,00,228.1,,,,,,,,,,,,,,
2017,07,04,05,58,00,235.0,,,,,,,,,,,,,,
2017,07,04,05,59,00,197.3,,,,,,,,,,,,,,
2017,07,04,06,00,00,194.7,,,,,,,,,,,,,,
2017,07,04,06,01,00,188.1,,,,,,,,,,,,,,
2017,07,04,06,02,00,203.6,,,,,,,,,,,,,,
2017,07,04,06,03,00,234.5,,,,,,,,,,,,,,
2017,07,04,06,04,00,269.6,,,,,,,,,,,,,,
2017,07,04,06,05,00,264.2,,,,,,,,,,,,,,
2017,07,04,06,06,00,258.2,,,,,,,,,,,,,,
2017,07,04,06,07,00,322.7,,,,,,,,,,,,,,
2017,07,04,06,08,00,346.4,,,,,,,,,,,,,,
2017,07,04,06,09,00,295.7,,,,,,,,,,,,,,
2017,07,04,06,10,00,250.5,,,,,,,,,,,,,,
2017,07,04,06,11,00,231.8,,,,,,,,,,,,,,
2017,07,04,06,12,00,276.1,,,,,,,,,,,,,,
2017,07,04,06,13,00,259.8,,,,,,,,,,,,,,
2017,07,04,06,14,00,252.7,,,,,,,,,,,,,,
2017,07,04,06,15,00,241.4,,,,,,,,,,,,,,
2017,07,04,06,16,00,256.8,,,,,,,,,,,,,,
2017,07,04,06,17,00,287.1,,,,,,,,,,,,,,
2017,07,04,06,18,00,243.0,,,,,,,,,,,,,,
2017,07,04,06,19,00,260.3,,,,,,,,,,,,,,
2017,07,04,06,20,00,286.4,,,,,,,,,,,,,,
2017,07,04,06,21,00,275.3,,,,,,,,,,,,,,
2017,07,04,06,22,00,239.1,,,,,,,,,,,,,,
2017,07,04,06,23,00,218.8,,,,,,,,,,,,,,
2017,07,04,06,24,00,247.9,,,,,,,,,,,,,,
2017,07,04,06,25,00,253.1,,,,,,,,,,,,,,
2017,07,04,06,26,00,230.0,,,,,,,,,,,,,,
2017,07,04,06,27,00,236.6,,,,,,,,,,,,,,
2017,07,04,06,28,00,212.4,,,,,,,,,,,,,,
2017,07,04,06,29,00,199.3,,,,,,,,,,,,,,
2017,07,04,06,30,00,206.3,,,,,,,,,,,,,,
2017,07,04,06,31,00,206.9,,,,,,,,,,,,,,
2017,07,04,06,32,00,205.9,,,,,,,,,,,,,,
2017,07,04,06,33,00,223.7,,,,,,,,,,,,,,
2017,07,04,06,34,00,260.2,,,,,,,,,,,,,,
2017,07,04,06,35,00,258.4,,,,,,,,,,,,,,
2017,07,04,06,36,00,253.7,,,,,,,,,,,,,,
2017,07,04,06,37,00,264.7,,,,,,,,,,,,,,
2017,07,04,06,38,00,295.7,,,,,,,,,,,,,,
2017,07,04,06,39,00,333.9,,,,,,,,,,,,,,
2017,07,04,06,40,00,315.8,,,,,,,,,,,,,,
2017,07,04,06,41,00,291.7,,,,,,,,,,,,,,
2017,07,04,06,42,00,265.6,,,,,,,,,,,,,,
2017,07,04,06,43,00,222.7,,,,,,,,,,,,,,
2017,07,04,06,44,00,193.5,,,,,,,,,,,,,,
2017,07,04,06,45,00,211.4,,,,,,,,,,,,,,
2017,07,04,06,46,00,216.2,,,,,,,,,,,,,,
2017,07,04,06,47,00,186.2,,,,,,,,,,,,,,
2017,07,04,06,48,00,189.4,,,,,,,,,,,,,,
2017,07,04,06,49,00,173.5,,,,,,,,,,,,,,
2017,07,04,06,50,00,186.4,,,,,,,,,,,,,,
2017,07,04,06,51,00,190.6,,,,,,,,,,,,,,
2017,07,04,06,52,00,184.1,,,,,,,,,,,,,,
2017,07,04,06,53,00,186.9,,,,,,,,,,,,,,
2017,07,04,06,54,00,177.4,,,,,,,,,,,,,,
2017,07,04,06,55,00,163.1,,,,,,,,,,,,,,
2017,07,04,06,56,00,186.7,,,,,,,,,,,,,,
2017,07,04,06,57,00,195.8,,,,,,,,,,,,,,
2017,07,04,06,58,00,189.1,,,,,,,,,,,,,,
2017,07,04,06,59,00,188.4,,,,,,,,,,,,,,
2017,07,04,07,00,00,167.0,,,,,,,,,,,,,,
2017,07,04,07,01,00,200.4,,,,,,,,,,,,,,
2017,07,04,07,02,00,221.1,,,,,,,,,,,,,,
2017,07,04,07,03,00,224.4,,,,,,,,,,,,,,
2017,07,04,07,04,00,213.1,,,,,,,,,,,,,,
2017,07,04,07,05,00,196.8,,,,,,,,,,,,,,
2017,07,04,07,06,00,166.6,,,,,,,,,,,,,,
2017,07,04,07,07,00,180.6,,,,,,,,,,,,,,
2017,07,04,07,08,00,225.3,,,,,,,,,,,,,,
2017,07,04,07,09,00,204.7,,,,,,,,,,,,,,
2017,07,04,07,10,00,189.2,,,,,,,,,,,,,,
2017,07,04,07,11,00,192.6,,,,,,,,,,,,,,
2017,07,04,07,12,00,196.2,,,,,,,,,,,,,,
2017,07,04,07,13,00,193.3,,,,,,,,,,,,,,
2017,07,04,07,14,00,189.5,,,,,,,,,,,,,,
2017,07,04,07,15,00,181.0,,,,,,,,,,,,,,
2017,07,04,07,16,00,179.1,,,,,,,,,,,,,,
2017,07,04,07,17,00,189.3,,,,,,,,,,,,,,
2017,07,04,07,18,00,212.8,,,,,,,,,,,,,,
2017,07,04,07,19,00,236.3,,,,,,,,,,,,,,
2017,07,04,07,20,00,245.3,,,,,,,,,,,,,,
2017,07,04,07,21,00,238.7,,,,,,,,,,,,,,
2017,07,04,07,22,00,212.6,,,,,,,,,,,,,,
2017,07,04,07,23,00,242.5,,,,,,,,,,,,,,
2017,07,04,07,24,00,204.5,,,,,,,,,,,,,,
2017,07,04,07,25,00,188.4,,,,,,,,,,,,,,
2017,07,04,07,26,00,198.0,,,,,,,,,,,,,,
2017,07,04,07,27,00,210.9,,,,,,,,,,,,,,
2017,07,04,07,28,00,226.1,,,,,,,,,,,,,,
2017,07,04,07,29,00,243.4,,,,,,,,,,,,,,
2017,07,04,07,30,00,236.8,,,,,,,,,,,,,,
2017,07,04,07,31,00,234.1,,,,,,,,,,,,,,
2017,07,04,07,32,00,240.0,,,,,,,,,,,,,,
2017,07,04,07,33,00,208.0,,,,,,,,,,,,,,
2017,07,04,07,34,00,189.2,,,,,,,,,,,,,,
2017,07,04,07,35,00,198.4,,,,,,,,,,,,,,
2017,07,04,07,36,00,232.1,,,,,,,,,,,,,,
2017,07,04,07,37,00,256.9,,,,,,,,,,,,,,
2017,07,04,07,38,00,264.9,,,,,,,,,,,,,,
2017,07,04,07,39,00,233.7,,,,,,,,,,,,,,
2017,07,04,07,40,00,233.8,,,,,,,,,,,,,,
2017,07,04,07,41,00,235.7,,,,,,,,,,,,,,
2017,07,04,07,42,00,235.5,,,,,,,,,,,,,,
2017,07,04,07,43,00,227.2,,,,,,,,,,,,,,
2017,07,04,07,44,00,214.8,,,,,,,,,,,,,,
2017,07,04,07,45,00,234.5,,,,,,,,,,,,,,
2017,07,04,07,46,00,216.9,,,,,,,,,,,,,,
2017,07,04,07,47,00,219.7,,,,,,,,,,,,,,
2017,07,04,07,48,00,227.9,,,,,,,,,,,,,,
2017,07,04,07,49,00,209.5,,,,,,,,,,,,,,
2017,07,04,07,50,00,208.4,,,,,,,,,,,,,,
2017,07,04,07,51,00,207.6,,,,,,,,,,,,,,
2017,07,04,07,52,00,212.1,,,,,,,,,,,,,,
2017,07,04,07,53,00,209.7,,,,,,,,,,,,,,
2017,07,04,07,54,00,210.6,,,,,,,,,,,,,,
2017,07,04,07,55,00,215.1,,,,,,,,,,,,,,
2017,07,04,07,56,00,201.7,,,,,,,,,,,,,,
2017,07,04,07,57,00,192.7,,,,,,,,,,,,,,
2017,07,04,07,58,00,189.2,,,,,,,,,,,,,,
2017,07,04,07,59,00,197.7,,,,,,,,,,,,,,
2017,07,04,08,00,00,205.7,,,,,,,,,,,,,,
2017,07,04,08,01,00,200.9,,,,,,,,,,,,,,
2017,07,04,08,02,00,207.1,,,,,,,,,,,,,,
2017,07,04,08,03,00,213.8,,,,,,,,,,,,,,
2017,07,04,08,04,00,207.8,,,,,,,,,,,,,,
2017,07,04,08,05,00,194.5,,,,,,,,,,,,,,
2017,07,04,08,06,00,162.8,,,,,,,,,,,,,,
2017,07,04,08,07,00,170.3,,,,,,,,,,,,,,
2017,07,04,08,08,00,164.4,,,,,,,,,,,,,,
2017,07,04,08,09,00,173.9,,,,,,,,,,,,,,
2017,07,04,08,10,00,166.0,,,,,,,,,,,,,,
2017,07,04,08,11,00,180.1,,,,,,,,,,,,,,
2017,07,04,08,12,00,190.4,,,,,,,,,,,,,,
2017,07,04,08,13,00,198.1,,,,,,,,,,,,,,
2017,07,04,08,14,00,198.7,,,,,,,,,,,,,,
2017,07,04,08,15,00,231.7,,,,,,,,,,,,,,
2017,07,04,08,16,00,265.3,,,,,,,,,,,,,,
2017,07,04,08,17,00,252.1,,,,,,,,,,,,,,
2017,07,04,08,18,00,249.1,,,,,,,,,,,,,,
2017,07,04,08,19,00,237.8,,,,,,,,,,,,,,
2017,07,04,08,20,00,218.7,,,,,,,,,,,,,,
2017,07,04,08,21,00,204.4,,,,,,,,,,,,,,
2017,07,04,08,22,00,177.6,,,,,,,,,,,,,,
2017,07,04,08,23,00,169.8,,,,,,,,,,,,,,
2017,07,04,08,24,00,169.9,,,,,,,,,,,,,,
2017,07,04,08,25,00,199.2,,,,,,,,,,,,,,
2017,07,04,08,26,00,186.1,,,,,,,,,,,,,,
2017,07,04,08,27,00,137.5,,,,,,,,,,,,,,
2017,07,04,08,28,00,117.5,,,,,,,,,,,,,,
2017,07,04,08,29,00,94.9,,,,,,,,,,,,,,
2017,07,04,08,30,00,73.7,,,,,,,,,,,,,,
2017,07,04,08,31,00,78.3,,,,,,,,,,,,,,
2017,07,04,08,32,00,117.7,,,,,,,,,,,,,,
2017,07,04,08,33,00,137.4,,,,,,,,,,,,,,
2017,07,04,08,34,00,107.7,,,,,,,,,,,,,,
2017,07,04,08,35,00,54.3,,,,,,,,,,,,,,
2017,07,04,08,36,00,33.8,,,,,,,,,,,,,,
2017,07,04,08,37,00,40.0,,,,,,,,,,,,,,
2017,07,04,08,38,00,65.2,,,,,,,,,,,,,,
2017,07,04,08,39,00,73.9,,,,,,,,,,,,,,
2017,07,04,08,40,00,80.4,,,,,,,,,,,,,,
2017,07,04,08,41,00,70.7,,,,,,,,,,,,,,
2017,07,04,08,42,00,60.4,,,,,,,,,,,,,,
2017,07,04,08,43,00,42.5,,,,,,,,,,,,,,
2017,07,04,08,44,00,35.3,,,,,,,,,,,,,,
2017,07,04,08,45,00,34.2,,,,,,,,,,,,,,
2017,07,04,08,46,00,36.8,,,,,,,,,,,,,,
2017,07,04,08,47,00,41.2,,,,,,,,,,,,,,
2017,07,04,08,48,00,52.2,,,,,,,,,,,,,,
2017,07,04,08,49,00,59.9,,,,,,,,,,,,,,
2017,07,04,08,50,00,68.4,,,,,,,,,,,,,,
2017,07,04,08,51,00,76.2,,,,,,,,,,,,,,
2017,07,04,08,52,00,90.5,,,,,,,,,,,,,,
2017,07,04,08,53,00,118.5,,,,,,,,,,,,,,
2017,07,04,08,54,00,134.0,,,,,,,,,,,,,,
2017,07,04,08,55,00,154.8,,,,,,,,,,,,,,
2017,07,04,08,56,00,152.8,,,,,,,,,,,,,,
2017,07,04,08,57,00,162.1,,,,,,,,,,,,,,
2017,07,04,08,58,00,161.8,,,,,,,,,,,,,,
2017,07,04,08,59,00,151.7,,,,,,,,,,,,,,
2017,07,04,09,00,00,141.2,,,,,,,,,,,,,,
2017,07,04,09,01,00,135.6,,,,,,,,,,,,,,
2017,07,04,09,02,00,124.0,,,,,,,,,,,,,,
2017,07,04,09,03,00,130.9,,,,,,,,,,,,,,
2017,07,04,09,04,00,147.7,,,,,,,,,,,,,,
2017,07,04,09,05,00,158.8,,,,,,,,,,,,,,
2017,07,04,09,06,00,164.4,,,,,,,,,,,,,,
2017,07,04,09,07,00,177.7,,,,,,,,,,,,,,
2017,07,04,09,08,00,159.1,,,,,,,,,,,,,,
2017,07,04,09,09,00,166.1,,,,,,,,,,,,,,
2017,07,04,09,10,00,181.2,,,,,,,,,,,,,,
2017,07,04,09,11,00,193.1,,,,,,,,,,,,,,
2017,07,04,09,12,00,160.6,,,,,,,,,,,,,,
2017,07,04,09,13,00,139.5,,,,,,,,,,,,,,
2017,07,04,09,14,00,124.2,,,,,,,,,,,,,,
2017,07,04,09,15,00,115.3,,,,,,,,,,,,,,
2017,07,04,09,16,00,105.6,,,,,,,,,,,,,,
2017,07,04,09,17,00,104.1,,,,,,,,,,,,,,
2017,07,04,09,18,00,92.9,,,,,,,,,,,,,,
2017,07,04,09,19,00,87.2,,,,,,,,,,,,,,
2017,07,04,09,20,00,95.7,,,,,,,,,,,,,,
2017,07,04,09,21,00,79.2,,,,,,,,,,,,,,
2017,07,04,09,22,00,81.2,,,,,,,,,,,,,,
2017,07,04,09,23,00,100.1,,,,,,,,,,,,,,
2017,07,04,09,24,00,116.0,,,,,,,,,,,,,,
2017,07,04,09,25,00,122.9,,,,,,,,,,,,,,
2017,07,04,09,26,00,117.6,,,,,,,,,,,,,,
2017,07,04,09,27,00,116.8,,,,,,,,,,,,,,
2017,07,04,09,28,00,112.3,,,,,,,,,,,,,,
2017,07,04,09,29,00,106.2,,,,,,,,,,,,,,
2017,07,04,09,30,00,105.4,,,,,,,,,,,,,,
2017,07,04,09,31,00,80.9,,,,,,,,,,,,,,
2017,07,04,09,32,00,62.9,,,,,,,,,,,,,,
2017,07,04,09,33,00,39.6,,,,,,,,,,,,,,
2017,07,04,09,34,00,37.9,,,,,,,,,,,,,,
2017,07,04,09,35,00,37.5,,,,,,,,,,,,,,
2017,07,04,09,36,00,37.3,,,,,,,,,,,,,,
2017,07,04,09,37,00,37.8,,,,,,,,,,,,,,
2017,07,04,09,38,00,36.6,,,,,,,,,,,,,,
2017,07,04,09,39,00,35.8,,,,,,,,,,,,,,
2017,07,04,09,40,00,33.7,,,,,,,,,,,,,,
2017,07,04,09,41,00,33.2,,,,,,,,,,,,,,
2017,07,04,09,42,00,33.2,,,,,,,,,,,,,,
2017,07,04,09,43,00,31.6,,,,,,,,,,,,,,
2017,07,04,09,44,00,37.3,,,,,,,,,,,,,,
2017,07,04,09,45,00,52.5,,,,,,,,,,,,,,